[[{"header":{"parameterUnit":"m.s-1","parameterCategory":1,"la1":30.2991,"la2":30.254,"lo1":-89.0895,"lo2":-89.0444,"dy":0.0017,"dx":0.0017,"nx":28,"ny":28,"refTime":"2026-03-03T03:00:00:Z","depth":0,"parameterNumber":2,"parameterNumberName":"U-component_of_WINDS"},"data":[0,0,0,0,0,0,0,0,0,0,0,0,0,0,0,0,0,0,0,0,0,0,0,0,0,0,0,0,0,0,0,0,0,0,0,0,0,0,0,0,0,0,0,0,0,0,0,0,0,0,0,0,0,0,0,0,0,0,-4.735,-4.7352,0,-4.7471,-4.7473,-4.7474,-4.7497,-4.7496,-4.7495,-4.7494,-4.7607,-4.7611,-4.7615,0,0,0,0,0,0,0,0,0,0,0,0,0,-4.7131,-4.7135,-4.735,-4.7352,-4.7353,-4.7471,-4.7473,-4.7474,-4.7497,-4.7496,-4.7494,-4.7493,-4.7606,-4.761,-4.7615,0,0,0,0,0,0,0,0,0,0,0,0,0,-4.7236,-4.7136,-4.735,-4.7379,-4.7383,-4.7471,-4.7473,-4.7475,-4.7497,-4.7496,-4.7494,-4.7493,-4.7604,-4.761,-4.7616,-4.768,0,0,-4.7634,-4.7636,0,0,0,0,0,0,0,0,-4.723,-4.7244,-4.7373,-4.7377,-4.7382,-4.7468,-4.7437,-4.7543,-4.7497,-4.7453,-4.7494,-4.7492,-4.7561,-4.757,-4.7596,-4.7685,-4.769,-4.7634,-4.7638,-4.764,-4.7642,0,0,0,0,0,0,0,-4.7223,-4.7239,-4.7398,-4.7375,-4.738,-4.7383,-4.7397,-4.7457,-4.7513,-4.7457,-4.7459,-4.7474,-4.7563,-4.759,-4.7599,-4.7692,-4.7634,-4.7639,-4.7643,-4.7645,-4.7842,-4.7844,0,0,0,0,0,0,-4.7212,-4.7233,-4.7394,-4.7401,-4.7301,-4.7389,-4.7404,-4.7441,-4.7513,-4.7523,-4.7475,-4.7474,-4.7581,-4.7592,-4.7603,-4.7684,-4.764,-4.7646,-4.7649,-4.7841,-4.7843,-4.7845,0,0,0,0,0,0,-4.7207,-4.7226,-4.7389,-4.7318,-4.7339,-4.7394,-4.7436,-4.7444,-4.7472,-4.7526,-4.7535,-4.7493,-4.758,-4.7595,-4.7662,-4.7688,-4.7648,-4.7654,-4.7839,-4.7841,-4.7844,-4.7845,0,0,0,0,0,0,-4.7201,-4.7224,-4.725,-4.7319,-4.7343,-4.7448,-4.7438,-4.7448,-4.7483,-4.7483,-4.7546,-4.7554,-4.758,-4.7653,-4.7668,-4.7695,-4.7658,-4.7836,-4.784,-4.7843,-4.7843,-4.7847,-4.7851,0,0,0,0,0,-4.7193,-4.7243,-4.7252,-4.7271,-4.7378,-4.745,-4.7463,-4.7495,-4.7485,-4.7511,-4.7547,-4.7552,-4.7684,-4.766,-4.7676,-4.7706,-4.7835,-4.7839,-4.7843,-4.7841,-4.7846,-4.7851,0,0,0,0,0,0,-4.7171,-4.7252,-4.7263,-4.7337,-4.7387,-4.7454,-4.7487,-4.75,-4.755,-4.7548,-4.7583,-4.7596,-4.7662,-4.7691,-4.7663,-4.7773,-4.7758,-4.7766,-4.7751,-4.7757,-4.7761,-4.7751,-4.7663,0,0,0,0,0,-4.7177,-4.7232,-4.7298,-4.7357,-4.7383,-4.7431,-4.7463,-4.7485,-4.7536,-4.7555,-4.7596,-4.7643,-4.7695,-4.7728,-4.7779,-4.7849,-4.7862,-4.7877,-4.7881,-4.7885,-4.7889,-4.7929,-4.7937,-4.7858,-4.7857,-4.7857,0,0,-4.7185,-4.7236,-4.7268,-4.7355,-4.7396,-4.745,-4.7448,-4.7504,-4.7544,-4.7563,-4.763,-4.7662,-4.7716,-4.7786,-4.7818,-4.7812,-4.7915,-4.789,-4.7892,-4.7895,-4.7934,-4.7941,-4.7948,-4.786,-4.786,-4.7859,0,0,-4.7228,-4.7274,-4.7329,-4.7372,-4.7436,-4.7469,-4.7482,-4.7548,-4.7571,-4.764,-4.7657,-4.7703,-4.7792,-4.7831,-4.7862,-4.7926,-4.7933,-4.7942,-4.7962,-4.8,-4.8007,-4.8012,-4.8034,-4.8042,-4.7947,-4.7947,-4.7947,0,-4.7229,-4.7315,-4.7354,-4.7412,-4.7449,-4.7475,-4.753,-4.7569,-4.7644,-4.7668,-4.7662,-4.7776,-4.7814,-4.7894,-4.791,-4.7935,-4.795,-4.7933,-4.8003,-4.8009,-4.8015,-4.8036,-4.8044,-4.7948,-4.7948,-4.7948,-4.7948,0,-4.7313,-4.7372,-4.7409,-4.7487,-4.7529,-4.7584,-4.763,-4.7668,-4.7687,-4.7719,-4.779,-4.7838,-4.79,-4.7921,-4.7937,-4.8003,-4.7997,-4.7997,-4.7982,-4.8022,-4.8043,-4.8051,-4.7948,-4.7948,-4.7948,-4.7948,0,0,-4.7341,-4.7446,-4.7458,-4.7495,-4.757,-4.7615,-4.7672,-4.7737,-4.7768,-4.782,-4.7868,-4.7945,-4.7947,-4.7982,-4.8004,-4.8038,-4.8086,-4.8034,-4.8035,-4.804,-4.816,-4.8158,-4.8167,-4.8093,-4.8094,-4.8096,-4.8155,0,-4.7393,-4.75,-4.7539,-4.7625,-4.768,-4.7708,-4.7757,-4.7808,-4.7841,-4.789,-4.7926,-4.798,-4.7978,-4.8,-4.8035,-4.8072,-4.811,-4.8069,-4.8134,-4.8136,-4.8117,-4.8178,-4.8176,-4.8229,-4.8163,-4.8165,-4.8166,0,-4.7466,-4.7525,-4.7618,-4.7689,-4.7714,-4.7758,-4.7822,-4.787,-4.7928,-4.7949,-4.7992,-4.8013,-4.8072,-4.8058,-4.8139,-4.811,-4.814,-4.8162,-4.8165,-4.817,-4.8151,-4.8182,-4.8247,-4.8254,-4.8179,-4.8178,-4.8177,0,-4.7476,-4.7578,-4.7648,-4.7679,-4.7764,-4.7795,-4.7831,-4.7888,-4.7925,-4.7981,-4.8005,-4.8065,-4.8097,-4.8142,-4.8178,-4.8164,-4.8256,-4.8244,-4.8273,-4.8272,-4.8288,-4.8286,-4.8356,-4.8312,-4.8311,-4.8311,-4.8311,0,-4.7528,-4.7583,-4.7654,-4.7696,-4.776,-4.7805,-4.7865,-4.7902,-4.7954,-4.8002,-4.8029,-4.8073,-4.812,-4.8169,-4.8198,-4.8261,-4.8275,-4.8292,-4.8299,-4.8289,-4.8286,-4.8306,-4.8302,-4.8313,-4.8313,-4.8313,-4.8312,0,-4.7548,-4.7598,-4.7676,-4.7753,-4.7773,-4.7816,-4.788,-4.7921,-4.7959,-4.802,-4.8036,-4.8092,-4.8153,-4.8195,-4.8271,-4.8291,-4.8358,-4.8365,-4.8339,-4.8342,-4.8369,-4.8365,-4.8452,-4.8465,-4.8413,-4.8414,-4.8414,0,-4.7576,-4.7621,-4.7704,-4.7741,-4.7779,-4.7837,-4.7877,-4.7923,-4.7963,-4.8035,-4.8067,-4.8131,-4.8184,-4.8279,-4.8324,-4.8383,-4.839,-4.8417,-4.8399,-4.8388,-4.8389,-4.8385,-4.8389,-4.8418,-4.8419,-4.8419,-4.8419,0,-4.7621,-4.7646,-4.7704,-4.7773,-4.7821,-4.7876,-4.7931,-4.7958,-4.8014,-4.8057,-4.8122,-4.8164,-4.8245,-4.8307,-4.8371,-4.8405,-4.8421,-4.8426,-4.8435,-4.8424,-4.8407,-4.8415,-4.8344,-4.8422,-4.8422,-4.8422,-4.8422,-4.8421,-4.7646,-4.7687,-4.7754,-4.7818,-4.7866,-4.7918,-4.7961,-4.8006,-4.8062,-4.8134,-4.8158,-4.8225,-4.8283,-4.8372,-4.8408,-4.8459,-4.8456,-4.847,-4.8474,-4.8476,-4.8475,-4.8402,-4.8471,-4.8471,-4.8471,-4.8471,-4.8471,0,-4.7691,-4.7737,-4.7797,-4.7875,-4.7926,-4.7943,-4.8005,-4.8046,-4.8106,-4.8161,-4.8214,-4.8289,-4.835,-4.8403,-4.8466,-4.8497,-4.8506,-4.8511,-4.8508,-4.8516,-4.8474,-4.8459,-4.8504,-4.8504,-4.8504,-4.8504,-4.8504,-4.8504,-4.772,-4.7792,-4.7824,-4.7919,-4.7964,-4.8033,-4.8067,-4.8114,-4.8159,-4.8243,-4.8296,-4.8331,-4.8385,-4.8453,-4.851,-4.8524,-4.8544,-4.8548,-4.8563,-4.8522,-4.8518,-4.8515,-4.85,-4.8553,-4.8553,-4.86,-4.8601,-4.8601]},{"header":{"parameterUnit":"m.s-1","parameterCategory":1,"la1":30.2991,"la2":30.254,"lo1":-89.0895,"lo2":-89.0444,"dy":0.0017,"dx":0.0017,"nx":28,"ny":28,"refTime":"2026-03-03T03:00:00:Z","depth":0,"parameterNumber":3,"parameterNumberName":"V-component_of_WINDS"},"data":[0,0,0,0,0,0,0,0,0,0,0,0,0,0,0,0,0,0,0,0,0,0,0,0,0,0,0,0,0,0,0,0,0,0,0,0,0,0,0,0,0,0,0,0,0,0,0,0,0,0,0,0,0,0,0,0,0,0,3.2588,3.2589,0,3.2659,3.2659,3.266,3.2661,3.266,3.266,3.2659,3.2723,3.2725,3.2727,0,0,0,0,0,0,0,0,0,0,0,0,0,3.2449,3.2452,3.2588,3.2589,3.259,3.2658,3.2659,3.266,3.2661,3.266,3.2659,3.2658,3.2722,3.2725,3.2728,0,0,0,0,0,0,0,0,0,0,0,0,0,3.2513,3.2453,3.2588,3.2599,3.2601,3.2658,3.2659,3.2661,3.2662,3.266,3.2659,3.2658,3.2721,3.2724,3.2728,3.2777,0,0,3.274,3.2741,0,0,0,0,0,0,0,0,3.251,3.2518,3.2596,3.2598,3.26,3.265,3.2634,3.2699,3.2662,3.2638,3.2659,3.2657,3.2699,3.2704,3.272,3.278,3.2783,3.274,3.2742,3.2744,3.2745,0,0,0,0,0,0,0,3.2505,3.2515,3.2616,3.2598,3.26,3.2599,3.2606,3.2646,3.2675,3.264,3.2641,3.2649,3.27,3.2717,3.2722,3.2784,3.274,3.2743,3.2745,3.2747,3.289,3.2891,0,0,0,0,0,0,3.25,3.2512,3.2613,3.2618,3.2551,3.2602,3.2611,3.2635,3.2674,3.2679,3.265,3.2649,3.2711,3.2717,3.2724,3.2785,3.2744,3.2747,3.2749,3.2888,3.289,3.2892,0,0,0,0,0,0,3.2497,3.2509,3.2611,3.2565,3.2578,3.2606,3.2633,3.2637,3.2654,3.2682,3.2686,3.2663,3.271,3.2719,3.2765,3.2787,3.2749,3.2752,3.2886,3.2889,3.2891,3.2907,0,0,0,0,0,0,3.2493,3.2508,3.2527,3.2566,3.258,3.2652,3.2635,3.264,3.2662,3.2661,3.2695,3.2699,3.271,3.2759,3.2769,3.2792,3.2755,3.2884,3.2887,3.289,3.2905,3.291,3.2914,0,0,0,0,0,3.2488,3.2527,3.2528,3.2541,3.2606,3.2653,3.2662,3.2675,3.2663,3.2683,3.2702,3.2698,3.2784,3.2764,3.2775,3.2799,3.2883,3.2886,3.289,3.2903,3.2909,3.2914,0,0,0,0,0,0,3.2486,3.2532,3.2534,3.2587,3.2617,3.2653,3.2678,3.2681,3.2712,3.271,3.2723,3.2731,3.2777,3.2793,3.277,3.285,3.2832,3.2837,3.2838,3.2844,3.2849,3.2844,3.2758,0,0,0,0,0,3.2493,3.253,3.2566,3.2609,3.2625,3.2649,3.267,3.2679,3.2709,3.2721,3.2742,3.277,3.2803,3.2824,3.2856,3.2908,3.2916,3.293,3.2935,3.2939,3.2943,3.2973,3.298,3.2903,3.2903,3.2903,0,0,3.2504,3.2534,3.2556,3.261,3.2634,3.2671,3.2659,3.2698,3.2725,3.2725,3.2772,3.2789,3.282,3.287,3.2893,3.2885,3.2967,3.2943,3.2946,3.2948,3.2978,3.2985,3.2991,3.2905,3.2905,3.2905,0,0,3.2546,3.2572,3.2613,3.2639,3.2677,3.2694,3.2704,3.2741,3.2754,3.2802,3.2804,3.2835,3.2892,3.2915,3.2934,3.299,3.2988,3.3,3.3024,3.3053,3.3059,3.3065,3.3085,3.3093,3.3004,3.3005,3.3005,0,3.2555,3.2613,3.2632,3.2672,3.2696,3.2703,3.2744,3.2767,3.2812,3.2828,3.2819,3.2893,3.2914,3.2971,3.2985,3.3,3.3011,3.2995,3.3058,3.3063,3.3068,3.3088,3.3096,3.3006,3.3006,3.3005,3.3005,0,3.2624,3.2664,3.2691,3.274,3.2767,3.2807,3.2831,3.2856,3.2863,3.2881,3.293,3.2957,3.2996,3.301,3.3015,3.3068,3.3062,3.3055,3.3037,3.3077,3.3096,3.3103,3.3008,3.3007,3.3007,3.3006,0,0,3.2661,3.2725,3.2735,3.2758,3.2804,3.2834,3.2875,3.2917,3.2938,3.297,3.3004,3.3055,3.305,3.3072,3.3081,3.3107,3.3151,3.3097,3.3098,3.3106,3.3212,3.3217,3.3225,3.3151,3.3152,3.3154,3.3209,0,3.2708,3.2784,3.2805,3.2868,3.2906,3.2916,3.2952,3.2982,3.3001,3.3034,3.3053,3.309,3.308,3.3094,3.312,3.314,3.3172,3.3136,3.3181,3.3183,3.3173,3.3235,3.3239,3.329,3.3217,3.3218,3.3219,0,3.2772,3.2811,3.288,3.2924,3.294,3.2972,3.3014,3.3047,3.3082,3.3094,3.3121,3.3129,3.3171,3.3152,3.321,3.3185,3.3205,3.3218,3.3221,3.3225,3.3203,3.324,3.3307,3.3314,3.323,3.3229,3.3229,0,3.2794,3.2863,3.2914,3.2934,3.2986,3.3009,3.3031,3.3066,3.3092,3.3127,3.3144,3.3183,3.3204,3.3233,3.3251,3.3235,3.3308,3.329,3.3318,3.3318,3.3331,3.333,3.3402,3.3345,3.3345,3.3344,3.3344,0,3.2843,3.2885,3.2926,3.2957,3.3004,3.3027,3.3073,3.3095,3.3127,3.3162,3.3171,3.3203,3.3225,3.326,3.3273,3.332,3.3329,3.3339,3.3342,3.3338,3.3337,3.335,3.3347,3.3347,3.3346,3.3346,3.3345,0,3.2875,3.2904,3.2961,3.3008,3.3021,3.3054,3.3093,3.3124,3.3145,3.3189,3.32,3.3231,3.3273,3.3295,3.3345,3.3355,3.3407,3.3408,3.3396,3.3398,3.3425,3.3422,3.3507,3.352,3.3454,3.3455,3.3455,0,3.2904,3.2938,3.2991,3.3017,3.3041,3.3082,3.311,3.3134,3.3162,3.3208,3.3233,3.3276,3.3312,3.3378,3.3404,3.3443,3.3445,3.3473,3.3451,3.3447,3.3446,3.3444,3.3448,3.3476,3.3476,3.3477,3.3477,0,3.2953,3.2968,3.3009,3.3056,3.309,3.3127,3.3163,3.3184,3.3214,3.3244,3.329,3.3318,3.3374,3.3416,3.3459,3.3479,3.3483,3.3485,3.3493,3.3489,3.3481,3.3487,3.3407,3.3482,3.3481,3.3481,3.3481,3.3481,3.2985,3.3016,3.306,3.3107,3.3138,3.3173,3.3205,3.3233,3.3272,3.3321,3.3333,3.3381,3.3418,3.3476,3.3499,3.3536,3.353,3.3542,3.3545,3.3547,3.3549,3.3477,3.3543,3.3543,3.3543,3.3543,3.3543,0,3.3035,3.3066,3.3108,3.3162,3.3199,3.3205,3.3246,3.3276,3.3319,3.3356,3.3393,3.3446,3.3489,3.352,3.3563,3.3587,3.359,3.3597,3.3595,3.36,3.3552,3.354,3.3594,3.3594,3.3594,3.3594,3.3594,3.3594,3.3066,3.312,3.314,3.3211,3.324,3.3291,3.3314,3.3347,3.3376,3.3437,3.3474,3.3496,3.353,3.3577,3.3617,3.3625,3.364,3.3648,3.3655,3.3609,3.3603,3.3598,3.3588,3.3651,3.3651,3.3701,3.3702,3.3702]}]]